Home   Weather   Burlington   Past weeks
Flag for Canada

Past Weather in Burlington, Ontario, Canada — June 2015

Now
82 °F

Warm.


Feels Like: 84 °F
Forecast: 82 / 70 °F
Wind: 7 mph from Southwest

Location: Burlington Piers

Current Time: Jul 16, 2019 at 10:53:02 am

Latest Report: Jul 16, 2019 at 10:00 am


Visibility: N/A

Pressure: 29.95 "Hg

Humidity: 61%

Dew Point: 67 °F

Location of BurlingtonLocation

June 2015 Weather in Burlington — Graph

°F

High & Low Weather Summary for June 2015

 TemperatureHumidityPressure
High81 °F (Jun 10, 6:00 pm)100% (Jun 14, 11:00 pm)30.24 "Hg (Jun 14, 11:00 pm)
Low46 °F (Jun 1, 5:00 am)30% (Jun 24, 4:00 pm)29.56 "Hg (Jun 10, 6:00 pm)
Average61 °F78%29.95 "Hg
* Reported Jun 1 12:00 am — Jun 30 11:00 pm, Burlington. Weather by CustomWeather, © 2019

Note: Actual official high and low records may vary slightly from our data, if they occured in-between our weather recording intervals... More about our weather records

Advertising

Burlington Weather History for June 1, 2015

Scroll right to see more
 ConditionsComfort  
Time TempWeatherWind HumidityBarometerVisibility
12:00 am
Mon, Jun 1
47 °FCool.23 mph78%30.21 "HgN/A
1:00 am47 °FCool.21 mph78%30.20 "HgN/A
2:00 am48 °FCool.16 mph76%30.19 "HgN/A
3:00 am48 °FCool.16 mph78%30.18 "HgN/A
4:00 am47 °FCool.8 mph80%30.17 "HgN/A
5:00 am46 °FCool.7 mph83%30.16 "HgN/A
6:00 am46 °FCool.5 mph84%30.18 "HgN/A
7:00 am49 °FCool.7 mph74%30.18 "HgN/A
8:00 am49 °FCool.12 mph65%30.19 "HgN/A
9:00 am51 °FCool.14 mph66%30.20 "HgN/A
10:00 am50 °FCool.13 mph73%30.21 "HgN/A
11:00 am49 °FCool.8 mph78%30.21 "HgN/A
12:00 pm49 °FCool.6 mph79%30.22 "HgN/A
1:00 pm50 °FCool.6 mph75%30.21 "HgN/A
2:00 pm51 °FCool.2 mph75%30.21 "HgN/A
3:00 pm51 °FCool.1 mph70%30.20 "HgN/A
4:00 pm49 °FCool.3 mph83%30.20 "HgN/A
5:00 pm51 °FCool.3 mph80%30.19 "HgN/A
6:00 pm51 °FCool.6 mph86%30.19 "HgN/A
7:00 pm51 °FCool.5 mph84%30.19 "HgN/A
8:00 pm51 °FCool.3 mph87%30.20 "HgN/A
9:00 pm52 °FCool.5 mph81%30.20 "HgN/A
10:00 pm55 °FCool.6 mph72%30.21 "HgN/A
11:00 pm54 °FCool.5 mph74%30.20 "HgN/A
Weather by CustomWeather, © 2019

See weather overview

LIVE PARTIAL LUNAR ECLIPSE – Watch the eclipse as it happens